Location: Caucaguita
(10.3578°N, 66.8025°W)
Time: 02:17:33
(UTC+00:00)

Okean 1 Rocket - Pass Details

Date: 18 November 2025
Orbit: 599 x 628 km, 82.5° (Epoch: 09 December)

Event Time Altitude Azimuth Distance (km) Brightness Sun altitude
Rises 22:41:12 0° 192° (SSW) 2,904 6.9 -10.1°
Reaches altitude 10° 22:43:28 10° 196° (SSW) 1,995 6.1 -10.6°
Maximum altitude 22:47:49 57° 274° (W) 735 3.8 -11.7°
Drops below altitude 10° 22:52:08 10° 353° (N) 1,981 5.5 -12.7°
Sets 22:54:22 0° 358° (N) 2,882 6.3 -13.2°
